Retour au catalogue

OPS 9444

DSCS 2-14

ActifMilitaireGEO
NORAD 11622·PAYLOAD·🇺🇸 United States

Lancé Nov 21, 1979 depuis Cape Canaveral Space Force Station

Loading…

TLE

FraisSource: Space-Track

Époque: Sep 14, 2026, 03:51 UTC

1 11622U 79098B   26257.16041713  .00000003  00000-0  00000-0 0  9993
2 11622   8.3090 305.1080 0001405  80.5819  90.5044  0.98349080112852

Suivez OPS 9444 en temps réel avec AllMySat

Download on the App Store